[[{"header":{"parameterUnit":"m.s-1","parameterCategory":1,"la1":30.2991,"la2":30.254,"lo1":-89.0895,"lo2":-89.0444,"dy":0.0017,"dx":0.0017,"nx":28,"ny":28,"refTime":"2023-07-26T09:00:00:Z","depth":0,"parameterNumber":2,"parameterNumberName":"U-component_of_WINDS"},"data":[0,0,0,0,0,0,0,0,0,0,0,0,0,0,0,0,0,0,0,0,0,0,0,0,0,0,0,0,0,0,0,0,0,0,0,0,0,0,0,0,0,0,0,0,0,0,0,0,0,0,0,0,0,0,0,0,0,0,0.7032,0.7032,0,0.7022,0.7022,0.7022,0.6999,0.6998,0.6998,0.6997,0.6988,0.6988,0.6988,0,0,0,0,0,0,0,0,0,0,0,0,0,0.703,0.703,0.7032,0.7032,0.7032,0.7022,0.7022,0.7022,0.6999,0.6998,0.6998,0.6997,0.6988,0.6988,0.6988,0,0,0,0,0,0,0,0,0,0,0,0,0,0.7027,0.7031,0.7032,0.7019,0.7018,0.7022,0.7022,0.7022,0.6999,0.6998,0.6998,0.6997,0.6988,0.6988,0.6988,0.7005,0,0,0.6989,0.6989,0,0,0,0,0,0,0,0,0.7027,0.7027,0.7021,0.702,0.7019,0.7011,0.7018,0.7016,0.6999,0.7006,0.6997,0.6997,0.6996,0.6996,0.6996,0.7005,0.7004,0.6989,0.699,0.699,0.699,0,0,0,0,0,0,0,0.7027,0.7027,0.7028,0.7021,0.7019,0.7014,0.7012,0.7018,0.7005,0.7006,0.7004,0.7003,0.6995,0.6995,0.6995,0.7004,0.6989,0.699,0.699,0.699,0.7026,0.7026,0,0,0,0,0,0,0.703,0.7028,0.7029,0.7028,0.7021,0.7014,0.7013,0.7014,0.7005,0.7003,0.7004,0.7002,0.6995,0.6995,0.6995,0.7013,0.699,0.699,0.699,0.7025,0.7026,0.7027,0,0,0,0,0,0,0.703,0.703,0.7029,0.7027,0.7027,0.7015,0.7017,0.7014,0.7014,0.7004,0.7002,0.7006,0.6995,0.6994,0.7002,0.7013,0.699,0.699,0.7024,0.7025,0.7026,0.7051,0,0,0,0,0,0,0.703,0.703,0.7036,0.7028,0.7027,0.7037,0.7017,0.7015,0.7015,0.7013,0.7005,0.7003,0.6994,0.7002,0.7003,0.7013,0.6991,0.7023,0.7024,0.7026,0.7049,0.7052,0.7056,0,0,0,0,0,0.703,0.7044,0.7037,0.7037,0.7034,0.7037,0.7037,0.7026,0.7016,0.7022,0.7015,0.7004,0.7012,0.7003,0.7004,0.7014,0.7022,0.7024,0.7026,0.7047,0.7052,0.7056,0,0,0,0,0,0,0.7054,0.7042,0.7034,0.7046,0.7043,0.7033,0.7041,0.7031,0.7031,0.7029,0.7015,0.7013,0.7023,0.7019,0.701,0.7029,0.7015,0.7017,0.7031,0.7035,0.7039,0.7039,0.6991,0,0,0,0,0,0.706,0.7064,0.7054,0.7065,0.7064,0.7053,0.7053,0.7045,0.7041,0.704,0.7034,0.7031,0.7032,0.7034,0.7035,0.7048,0.7046,0.7055,0.7059,0.7062,0.7063,0.707,0.7074,0.7032,0.7032,0.7032,0,0,0.7074,0.7068,0.7071,0.7069,0.7066,0.707,0.7052,0.7056,0.7059,0.7041,0.7048,0.7043,0.7039,0.705,0.7054,0.7047,0.7074,0.7064,0.7066,0.7066,0.7072,0.7076,0.7079,0.7033,0.7033,0.7033,0,0,0.7101,0.7097,0.7106,0.7103,0.7098,0.709,0.7092,0.7085,0.7081,0.7088,0.7074,0.7077,0.708,0.7077,0.7076,0.7102,0.7092,0.7103,0.712,0.7127,0.713,0.7133,0.7142,0.7145,0.7105,0.7105,0.7105,0,0.7119,0.7124,0.7112,0.7117,0.7117,0.71,0.7109,0.7106,0.7102,0.7102,0.7094,0.7097,0.7093,0.7103,0.7109,0.7109,0.7111,0.7104,0.7131,0.7133,0.7136,0.7144,0.7148,0.7106,0.7106,0.7106,0.7106,0,0.7146,0.715,0.7157,0.7153,0.7154,0.7161,0.7149,0.7151,0.7143,0.7136,0.7144,0.7138,0.7137,0.7139,0.7131,0.7148,0.7143,0.7133,0.7119,0.7141,0.7149,0.7152,0.7108,0.7108,0.7107,0.7107,0,0,0.7188,0.7177,0.718,0.7177,0.7171,0.7173,0.718,0.7179,0.7181,0.7178,0.7183,0.7186,0.7177,0.7175,0.7167,0.7173,0.7193,0.7162,0.7162,0.7167,0.7211,0.7218,0.7222,0.7186,0.7187,0.7187,0.7211,0,0.7213,0.7223,0.7212,0.7224,0.7227,0.7211,0.7217,0.7213,0.7207,0.7209,0.7202,0.7205,0.7192,0.7191,0.7196,0.719,0.7202,0.7188,0.719,0.719,0.7191,0.7226,0.7234,0.7256,0.7214,0.7214,0.7215,0,0.7243,0.7242,0.7254,0.7246,0.7247,0.7252,0.7251,0.7253,0.7248,0.7243,0.7242,0.7232,0.7237,0.7224,0.7231,0.7222,0.7222,0.7219,0.722,0.7219,0.7204,0.7226,0.7263,0.7266,0.7219,0.7219,0.7218,0,0.7272,0.7273,0.7281,0.7279,0.7271,0.7274,0.7271,0.7266,0.7266,0.7265,0.7264,0.7264,0.7263,0.7263,0.7253,0.7244,0.7261,0.7247,0.7257,0.7258,0.7261,0.7261,0.7299,0.7263,0.7263,0.7263,0.7262,0,0.73,0.7309,0.7293,0.7298,0.7307,0.7294,0.7303,0.7298,0.7293,0.7297,0.7283,0.7287,0.7273,0.7275,0.7267,0.7274,0.7274,0.727,0.7268,0.7271,0.7272,0.7271,0.7269,0.7263,0.7263,0.7263,0.7263,0,0.7334,0.7324,0.7331,0.7322,0.732,0.7327,0.7319,0.7323,0.7316,0.732,0.732,0.731,0.7311,0.7301,0.7301,0.7296,0.7306,0.7302,0.7308,0.7306,0.7317,0.7316,0.7355,0.736,0.7321,0.7321,0.7322,0,0.7352,0.7358,0.735,0.7351,0.7348,0.735,0.735,0.7338,0.7339,0.7334,0.7338,0.7339,0.7338,0.7342,0.7334,0.7334,0.7328,0.7342,0.7328,0.7331,0.7328,0.7328,0.7328,0.7345,0.7346,0.7346,0.7346,0,0.7387,0.7381,0.7382,0.7381,0.7381,0.7379,0.7377,0.7379,0.7366,0.7367,0.7368,0.7368,0.7368,0.7368,0.7366,0.7363,0.7352,0.7351,0.7353,0.7356,0.7359,0.7357,0.7315,0.735,0.7349,0.7349,0.7349,0.7349,0.7413,0.7417,0.7412,0.7413,0.7409,0.7407,0.7411,0.7404,0.7405,0.7403,0.7396,0.7399,0.7394,0.7391,0.7388,0.739,0.7383,0.7387,0.7387,0.7388,0.739,0.736,0.7389,0.7389,0.7389,0.7389,0.7389,0,0.7446,0.7441,0.7442,0.7439,0.744,0.743,0.7427,0.7428,0.7431,0.7427,0.7427,0.7428,0.7429,0.7421,0.742,0.7423,0.7418,0.7423,0.7423,0.7422,0.7396,0.7394,0.7427,0.7427,0.7427,0.7427,0.7427,0.7427,0.7463,0.7469,0.7464,0.7469,0.7464,0.7466,0.7465,0.7464,0.7461,0.7463,0.7463,0.7458,0.7452,0.7451,0.7451,0.7449,0.7449,0.7456,0.7452,0.7428,0.7424,0.742,0.7418,0.7456,0.7456,0.7477,0.7477,0.7477]},{"header":{"parameterUnit":"m.s-1","parameterCategory":1,"la1":30.2991,"la2":30.254,"lo1":-89.0895,"lo2":-89.0444,"dy":0.0017,"dx":0.0017,"nx":28,"ny":28,"refTime":"2023-07-26T09:00:00:Z","depth":0,"parameterNumber":3,"parameterNumberName":"V-component_of_WINDS"},"data":[0,0,0,0,0,0,0,0,0,0,0,0,0,0,0,0,0,0,0,0,0,0,0,0,0,0,0,0,0,0,0,0,0,0,0,0,0,0,0,0,0,0,0,0,0,0,0,0,0,0,0,0,0,0,0,0,0,0,-1.1923,-1.1924,0,-1.1965,-1.1965,-1.1966,-1.199,-1.199,-1.199,-1.199,-1.203,-1.2031,-1.2032,0,0,0,0,0,0,0,0,0,0,0,0,0,-1.1863,-1.1864,-1.1923,-1.1924,-1.1924,-1.1965,-1.1965,-1.1966,-1.199,-1.199,-1.199,-1.199,-1.203,-1.2031,-1.2032,0,0,0,0,0,0,0,0,0,0,0,0,0,-1.1895,-1.1864,-1.1923,-1.1941,-1.1943,-1.1964,-1.1965,-1.1966,-1.199,-1.199,-1.199,-1.199,-1.203,-1.2031,-1.2033,-1.2038,0,0,-1.2037,-1.2038,0,0,0,0,0,0,0,0,-1.1893,-1.1897,-1.1938,-1.194,-1.1942,-1.1972,-1.1959,-1.199,-1.199,-1.1972,-1.199,-1.199,-1.2011,-1.2014,-1.2021,-1.204,-1.2042,-1.2037,-1.2038,-1.2039,-1.2039,0,0,0,0,0,0,0,-1.1891,-1.1896,-1.1939,-1.1938,-1.1941,-1.1947,-1.1951,-1.1965,-1.199,-1.1974,-1.1975,-1.198,-1.2012,-1.202,-1.2022,-1.2042,-1.2037,-1.2038,-1.2039,-1.204,-1.2069,-1.2069,0,0,0,0,0,0,-1.1886,-1.1894,-1.1938,-1.1941,-1.1918,-1.1948,-1.1953,-1.1962,-1.199,-1.1994,-1.198,-1.1981,-1.2017,-1.2021,-1.2024,-1.2033,-1.2039,-1.204,-1.2041,-1.2069,-1.2069,-1.2069,0,0,0,0,0,0,-1.1885,-1.189,-1.1936,-1.1918,-1.1924,-1.1948,-1.1959,-1.1963,-1.1971,-1.1995,-1.1999,-1.1983,-1.2017,-1.2022,-1.2035,-1.2034,-1.2041,-1.2042,-1.2069,-1.2069,-1.2069,-1.205,0,0,0,0,0,0,-1.1883,-1.1889,-1.1892,-1.1918,-1.1925,-1.1947,-1.1959,-1.1964,-1.1974,-1.1976,-1.1999,-1.2003,-1.2018,-1.2032,-1.2036,-1.2036,-1.2043,-1.2069,-1.2069,-1.2069,-1.2051,-1.2049,-1.2048,0,0,0,0,0,-1.1881,-1.1885,-1.1892,-1.1897,-1.1929,-1.1947,-1.1951,-1.1969,-1.1974,-1.1976,-1.1992,-1.2002,-1.2034,-1.2034,-1.2038,-1.2039,-1.2069,-1.2069,-1.2069,-1.2051,-1.2049,-1.2048,0,0,0,0,0,0,-1.1857,-1.1888,-1.1897,-1.1909,-1.1925,-1.1951,-1.1955,-1.1966,-1.1981,-1.1982,-1.2002,-1.2008,-1.2019,-1.203,-1.2029,-1.2046,-1.2053,-1.2053,-1.2038,-1.2036,-1.2035,-1.2032,-1.2044,0,0,0,0,0,-1.1854,-1.1866,-1.1892,-1.1901,-1.1909,-1.193,-1.1939,-1.1951,-1.1969,-1.1975,-1.1992,-1.2007,-1.2021,-1.2029,-1.2043,-1.2053,-1.2058,-1.2055,-1.2054,-1.2053,-1.2053,-1.2059,-1.2058,-1.2068,-1.2068,-1.2068,0,0,-1.1846,-1.1864,-1.1871,-1.1897,-1.1911,-1.1923,-1.1936,-1.1948,-1.1957,-1.1977,-1.1991,-1.2003,-1.2022,-1.2033,-1.2039,-1.2043,-1.2051,-1.2052,-1.2051,-1.2052,-1.2058,-1.2057,-1.2057,-1.2068,-1.2068,-1.2068,0,0,-1.1838,-1.1854,-1.1862,-1.1877,-1.1898,-1.1913,-1.1915,-1.1939,-1.1949,-1.1963,-1.1978,-1.1989,-1.2012,-1.2025,-1.2034,-1.2033,-1.2043,-1.2036,-1.2029,-1.2034,-1.2034,-1.2033,-1.2032,-1.2032,-1.2037,-1.2037,-1.2036,0,-1.1826,-1.1845,-1.1865,-1.1877,-1.1888,-1.1907,-1.1916,-1.1929,-1.1953,-1.196,-1.1964,-1.1994,-1.2008,-1.2023,-1.2022,-1.203,-1.2032,-1.2034,-1.2032,-1.2032,-1.2032,-1.2031,-1.2031,-1.2036,-1.2036,-1.2036,-1.2036,0,-1.1829,-1.1842,-1.1847,-1.1871,-1.1882,-1.1892,-1.1914,-1.1922,-1.1934,-1.1948,-1.1962,-1.198,-1.1998,-1.2003,-1.2013,-1.2019,-1.2021,-1.2029,-1.2036,-1.2029,-1.2029,-1.2029,-1.2034,-1.2035,-1.2035,-1.2035,0,0,-1.1806,-1.1843,-1.1844,-1.1855,-1.1881,-1.1892,-1.1903,-1.1921,-1.1928,-1.1945,-1.1954,-1.1974,-1.1981,-1.1992,-1.2005,-1.201,-1.2007,-1.2017,-1.2018,-1.2014,-1.2014,-1.2008,-1.2008,-1.2014,-1.2015,-1.2015,-1.2013,0,-1.1802,-1.1824,-1.1843,-1.1857,-1.187,-1.1889,-1.1899,-1.1915,-1.1929,-1.1941,-1.1956,-1.1969,-1.1978,-1.1985,-1.1991,-1.2006,-1.2007,-1.2007,-1.2023,-1.2023,-1.2017,-1.2008,-1.2001,-1.1999,-1.2013,-1.2013,-1.2013,0,-1.18,-1.1817,-1.1833,-1.1858,-1.1864,-1.1872,-1.1891,-1.1903,-1.1922,-1.1931,-1.1944,-1.1958,-1.197,-1.1976,-1.1993,-1.1992,-1.2,-1.2009,-1.2009,-1.2011,-1.2017,-1.2009,-1.1998,-1.1998,-1.2013,-1.2013,-1.2013,0,-1.1782,-1.1809,-1.1822,-1.1831,-1.1861,-1.1866,-1.1878,-1.1898,-1.1908,-1.1924,-1.1931,-1.1948,-1.1957,-1.197,-1.1987,-1.199,-1.2002,-1.201,-1.201,-1.201,-1.2011,-1.2011,-1.2001,-1.2017,-1.2017,-1.2017,-1.2017,0,-1.1775,-1.1784,-1.1814,-1.1822,-1.1833,-1.1854,-1.1864,-1.1878,-1.1895,-1.1906,-1.1923,-1.1933,-1.1956,-1.1968,-1.1982,-1.1994,-1.1998,-1.2005,-1.2009,-1.2004,-1.2003,-1.2009,-1.2009,-1.2017,-1.2017,-1.2017,-1.2017,0,-1.1756,-1.1777,-1.1792,-1.182,-1.1827,-1.1833,-1.1856,-1.1865,-1.188,-1.1893,-1.1898,-1.1921,-1.1936,-1.1955,-1.1976,-1.1986,-1.1996,-1.2002,-1.199,-1.1992,-1.1991,-1.199,-1.1984,-1.1985,-1.2,-1.2,-1.2,0,-1.175,-1.1758,-1.1786,-1.1795,-1.1807,-1.1821,-1.1832,-1.1854,-1.1864,-1.1887,-1.1892,-1.1909,-1.1924,-1.1948,-1.1966,-1.1982,-1.1988,-1.1985,-1.199,-1.1985,-1.1988,-1.1987,-1.1988,-1.1983,-1.1983,-1.1983,-1.1982,0,-1.1737,-1.1747,-1.1763,-1.1782,-1.1794,-1.181,-1.1827,-1.1833,-1.1858,-1.1868,-1.1885,-1.1896,-1.1919,-1.1935,-1.1954,-1.1966,-1.1978,-1.1981,-1.1982,-1.1976,-1.1969,-1.1973,-1.1985,-1.1981,-1.1981,-1.1981,-1.1981,-1.1981,-1.1724,-1.1732,-1.1754,-1.177,-1.1785,-1.1801,-1.181,-1.1827,-1.1841,-1.1862,-1.1874,-1.189,-1.1909,-1.1936,-1.1948,-1.196,-1.1965,-1.1966,-1.1966,-1.1966,-1.1964,-1.1967,-1.1964,-1.1964,-1.1964,-1.1964,-1.1964,0,-1.1712,-1.1727,-1.1742,-1.1766,-1.1779,-1.179,-1.181,-1.1819,-1.1834,-1.1851,-1.1866,-1.1885,-1.1901,-1.1921,-1.1939,-1.1945,-1.1951,-1.1949,-1.1948,-1.1951,-1.1959,-1.1957,-1.1944,-1.1944,-1.1944,-1.1944,-1.1944,-1.1944,-1.1707,-1.1721,-1.1734,-1.1756,-1.1771,-1.1787,-1.1797,-1.1811,-1.1826,-1.1846,-1.1861,-1.1874,-1.1893,-1.1912,-1.1927,-1.1933,-1.1938,-1.1934,-1.1941,-1.1948,-1.195,-1.1952,-1.195,-1.1935,-1.1935,-1.1932,-1.1932,-1.1932]}]]